This demonstration page uses our WeatherBlox Daily Observations layout. Learn more.

Left ArrowRight Arrow

36.19886, -115.1175

Hourly Observations for August 15, 2016

Temp ( °F °C ) Dew Point ( °F °C ) Humidity (%) Winds ( mph kmh ) Pressure ( in mb ) Visibility ( mi km ) Precip ( " mm )
12:53 am 00:53 Clear 97 36.1 32 0 10 10 W 16 26 29.78 1008 10 16.0934 0 0
1:53 am 01:53 Clear 95 35 33 0.6 11 11 SW 15 24 29.79 1009 10 16.0934 0 0
2:53 am 02:53 Clear 94 34.4 35 1.7 13 13 W 9 15 29.78 1009 10 16.0934 0 0
3:53 am 03:53 Clear 90 32.2 35 1.7 14 14 Calm 29.78 1008 10 16.0934 0 0
4:53 am 04:53 Clear 87 30.6 35 1.7 16 16 SSE 10 17 29.79 1009 10 16.0934 0 0
5:53 am 05:53 Clear 84 28.9 36 2.2 18 18 ENE 6 9 29.81 1009 10 16.0934 0 0
6:53 am 06:53 Sunny 84 28.9 37 2.8 19 19 Calm 29.83 1010 10 16.0934 0 0
7:53 am 07:53 Sunny 88 31.1 39 3.9 18 18 Calm 29.84 1011 10 16.0934 0 0
8:53 am 08:53 Sunny 94 34.4 41 5 16 16 E 5 7 29.85 1011 10 16.0934 0 0
9:53 am 09:53 Sunny 101 38.3 37 2.8 11 11 SSW 8 13 29.84 1011 10 16.0934 0 0
10:53 am 10:53 Sunny 104 40 27 -2.8 7 7 SW 15 24 29.85 1011 10 16.0934 0 0
11:53 am 11:53 Sunny 104 40 28 -2.2 7 7 WSW 14 22 29.84 1011 10 16.0934 0 0
12:53 pm 12:53 Sunny 105 40.6 31 -0.6 7 7 WSW 13 20 29.82 1010 10 16.0934 0 0
1:53 pm 13:53 Sunny 107 41.7 31 -0.6 7 7 WSW 14 22 29.8 1009 10 16.0934 0 0
2:53 pm 14:53 Sunny 107 41.7 32 0 7 7 SW 21 33 29.78 1009 10 16.0934 0 0
3:53 pm 15:53 Sunny 107 41.7 31 -0.6 7 7 W 17 28 29.77 1008 10 16.0934 0 0
4:53 pm 16:53 Sunny 107 41.7 30 -1.1 7 7 SSW 15 24 29.76 1008 10 16.0934 0 0
5:53 pm 17:53 Sunny 105 40.6 29 -1.7 7 7 W 15 24 29.75 1008 10 16.0934 0 0
6:53 pm 18:53 Sunny 104 40 25 -3.9 6 6 W 15 24 29.76 1008 10 16.0934 0 0
7:53 pm 19:53 Clear 101 38.3 26 -3.3 7 7 W 8 13 29.77 1008 10 16.0934 0 0
8:53 pm 20:53 Clear 99 37.2 27 -2.8 8 8 W 7 11 29.78 1009 10 16.0934 0 0
9:53 pm 21:53 Clear 96 35.6 27 -2.8 8 8 W 6 9 29.79 1009 10 16.0934 0 0
10:53 pm 22:53 Clear 95 35 25 -3.9 8 8 WSW 3 6 29.8 1009 10 16.0934 0 0
11:53 pm 23:53 Clear 92 33.3 27 -2.8 10 10 SW 5 7 29.8 1009 10 16.0934 0 0

Powered by AerisWeather